Location: Unspecified
(0.0000°N, 0.0000°E)
Time: 01:02:05
(UTC+00:00)

S-56A Canister/Altair - Pass Details

Date: 27 April 2019
Orbit: 632 x 2500 km, 38.9° (Epoch: 15 July)

Event Time Altitude Azimuth Distance (km) Brightness Sun altitude
Rises 18:54:25 0° 289° (WNW) 3,965 13.2 -13.8°
Reaches altitude 10° 18:58:09 10° 275° (W) 2,696 11.7 -14.7°
Maximum altitude 19:02:46 22° 226° (SW) 1,678 9.6 -15.8°
Drops below altitude 10° 19:06:34 10° 174° (S) 2,151 9.6 -16.7°
Enters shadow 19:07:34 - 166° (SSE) 2,438 9.8 -16.9°
